User: anonymous   Login
Location: Kernascl�den
(48.0062°N, 3.3198°W)
Time: 22:58:15
(UTC+00:00)
Language:

Cosmos 1939 Rocket - Orbit

View from above orbital plane
View from above orbital plane
View from above satellite
View from above satellite

Ground track
Ground track

The orbit data is extracted from the following two-line orbital elements,

1 19046U 88032B   21110.81484836 -.00000218  00000-0 -11609-4 0  9992
2 19046  97.3908 123.9994 0034958 237.6143 122.1698 15.02907737783413
Epoch (UTC): 20 April 2021 19:33:22
Eccentricity: 0.0034958
inclination: 97.3908°
perigee height: 533 km
apogee height: 582 km
right ascension of ascending node: 123.9994°
argument of perigee: 237.6143°
revolutions per day: 15.02907737
mean anomaly at epoch: 122.1698°
orbit number at epoch: 78341

The dashed part of the orbit path shows where the satellite is in the earth's shadow,  

DLR